Regional Weather Roundup
Issued by NWS Sioux Falls, SD

Home | Current Version | Previous Version | Text Only | Print | Product List | Glossary Off
Versions: 1 2 3 4 5 6 7 8 9 10 11 12 13 14 15 16 17 18 19 20 21 22 23 24 25 26 27 28 29 30 31 32 33 34 35 36 37 38 39 40 41 42 43 44 45 46 47 48 49 50

000
ASUS43 KFSD 201802
RWRFSD

WEATHER ROUNDUP FOR SE SOUTH DAKOTA/SW MINNESOTA/NW IOWA
NATIONAL WEATHER SERVICE SIOUX FALLS SD
100 PM CDT WED SEP 20 2017

NOTE: "FAIR" INDICATES FEW OR NO CLOUDS BELOW 12,000 FEET WITH NO
SIGNIFICANT WEATHER AND OR OBSTRUCTIONS TO VISIBILITY.


SDZ038>040-050-052>070-201900-
SOUTHEAST SOUTH DAKOTA

CITY           SKY/WX    TMP DP  RH WIND       PRES   REMARKS
BROOKINGS      SUNNY     65  46  50 W10       29.86R
CHAMBERLAIN    SUNNY     71  42  35 SW10      29.84F
6HR MIN TEMP:  49; 6HR MAX TEMP:  71;

HURON          SUNNY     69  42  37 SW8       29.84S
6HR MIN TEMP:  51; 6HR MAX TEMP:  69;

MADISON        FAIR      64  46  52 W12       29.87R
MITCHELL       SUNNY     69  39  33 W9        29.86S
6HR MIN TEMP:  52; 6HR MAX TEMP:  69;

SIOUX FALLS    MOSUNNY   69  51  52 W9        29.87R
6HR MIN TEMP:  55; 6HR MAX TEMP:  69;

WINNER         FAIR      70  39  32 SW16      29.84F
YANKTON        SUNNY     67  47  48 W6        29.88S
$$

MNZ071-072-080-081-089-090-097-098-201900-
SOUTHWEST MINNESOTA

CITY           SKY/WX    TMP DP  RH WIND       PRES   REMARKS
FAIRMONT       SUNNY     72  53  51 NW14      29.84R
JACKSON        SUNNY     68  52  56 NW8G17    29.86R
LUVERNE        SUNNY     64  45  48 W9        29.87S
MARSHALL       SUNNY     67  47  48 W9        29.85R
6HR MIN TEMP:  55; 6HR MAX TEMP:  67;

MONTEVIDEO     SUNNY     72  52  49 W6        29.83S
PIPESTONE      SUNNY     66  48  52 N3        29.87R
REDWOOD FALLS  SUNNY     68  46  45 N8        29.83R
TRACY          SUNNY     68  51  53 NW7       29.86R
WINDOM         SUNNY     68  50  52 NW10G16   29.86R
WORTHINGTON    SUNNY     67  50  54 W9        29.87R
$$

IAZ001>003-012>014-020>022-031-032-NEZ013-014-SDZ071-201900-
NORTHWEST IOWA

CITY           SKY/WX    TMP DP  RH WIND       PRES   REMARKS
CHEROKEE       SUNNY     71  53  52 N12       29.85R
DENISON        SUNNY     73  57  56 N12       29.85S
ESTHERVILLE    SUNNY     70  52  52 NW12      29.84R
LE MARS        SUNNY     70  50  49 NW10G18   29.87R
ORANGE CITY    SUNNY     70  54  56 NW10G16   29.87S
SHELDON        SUNNY     68  52  56 NW9       29.85F
SIOUX CITY     SUNNY     70  54  56 NW10      29.86S
6HR MIN TEMP:  57; 6HR MAX TEMP:  70;

SPENCER        SUNNY     72  52  49 W13       29.85R
6HR MIN TEMP:  58; 6HR MAX TEMP:  72;

STORM LAKE     SUNNY     72  52  49 N12G18    29.84S
$$

ABBREVIATIONS USED IN REMARKS
   TC - TEMPERATURE IN CELSIUS
  WCI - WIND CHILL INDEX
   HX - HEAT INDEX
  VSB - VISIBILITY




USA.gov is the U.S. government's official web portal to all federal, state and local government web resources and services.